| time (UTC) | temp C | wind direction | speed KPH | gust KPH | rain 1hr cm | rain 24hr cm | rain mn cm | humidity % | barometer mb |
| 20260506201516 | 12 | 328 | 6.4 | 16.1 | 0.00 | 0.00 | 0.00 | 26 | 1013.6 |
| 20260506200017 | 12 | 275 | 8.0 | 16.1 | 0.00 | 0.00 | 0.00 | 24 | 1014.1 |
| 20260506194520 | 11 | 290 | 8.0 | 16.1 | 0.00 | 0.00 | 0.00 | 25 | 1014.1 |
| 20260506193004 | 11 | 309 | 1.6 | 20.9 | 0.00 | 0.00 | 0.00 | 28 | 1014.4 |
| 20260506191511 | 11 | 319 | 1.6 | 16.1 | 0.00 | 0.00 | 0.00 | 28 | 1014.6 |
| 20260506190013 | 10 | 271 | 3.2 | 11.3 | 0.00 | 0.00 | 0.00 | 28 | 1015.1 |
| 20260506184515 | 11 | 263 | 6.4 | 12.9 | 0.00 | 0.00 | 0.00 | 30 | 1015.4 |
| 20260506183021 | 11 | 302 | 4.8 | 19.3 | 0.00 | 0.00 | 0.00 | 33 | 1015.4 |
| 20260506181536 | 10 | 305 | 4.8 | 14.5 | 0.00 | 0.00 | 0.00 | 31 | 1015.8 |
| 20260506180011 | 10 | 212 | 3.2 | 6.4 | 0.00 | 0.00 | 0.00 | 34 | 1016.0 |
| 20260506174512 | 8 | 285 | 9.7 | 16.1 | 0.00 | 0.00 | 0.00 | 35 | 1016.2 |
| 20260506173018 | 8 | 295 | 3.2 | 14.5 | 0.00 | 0.00 | 0.00 | 39 | 1016.6 |
| 20260506171527 | 8 | 295 | 4.8 | 14.5 | 0.00 | 0.00 | 0.00 | 40 | 1016.7 |
| 20260506170029 | 8 | 281 | 3.2 | 8.0 | 0.00 | 0.00 | 0.00 | 42 | 1016.9 |
| 20260506164532 | 7 | 287 | 4.8 | 11.3 | 0.00 | 0.00 | 0.00 | 43 | 1017.1 |
| 20260506163016 | 7 | 265 | 4.8 | 11.3 | 0.00 | 0.00 | 0.00 | 44 | 1017.4 |
| 20260506161522 | 6 | 309 | 4.8 | 9.7 | 0.00 | 0.00 | 0.00 | 44 | 1017.8 |
| 20260506160024 | 6 | 351 | 1.6 | 11.3 | 0.00 | 0.00 | 0.00 | 47 | 1017.9 |
| 20260506154528 | 6 | 293 | 8.0 | 12.9 | 0.00 | 0.00 | 0.00 | 47 | 1018.1 |
| 20260506153010 | 5 | 290 | 3.2 | 11.3 | 0.00 | 0.00 | 0.00 | 49 | 1018.2 |
| 20260506151518 | 4 | 290 | 6.4 | 12.9 | 0.00 | 0.00 | 0.00 | 49 | 1018.4 |
| 20260506150021 | 4 | 300 | 8.0 | 12.9 | 0.00 | 0.00 | 0.00 | 51 | 1018.4 |
| 20260506144529 | 3 | 325 | 6.4 | 11.3 | 0.00 | 0.00 | 0.00 | 54 | 1018.4 |
| 20260506143010 | 2 | 274 | 3.2 | 9.7 | 0.00 | 0.00 | 0.00 | 59 | 1018.6 |
| 20260506141523 | 1 | 283 | 3.2 | 6.4 | 0.00 | 0.00 | 0.00 | 62 | 1018.8 |
| 20260506140017 | 1 | 267 | 1.6 | 4.8 | 0.00 | 0.00 | 0.00 | 61 | 1018.9 |
| 20260506134504 | 0 | 281 | 1.6 | 4.8 | 0.00 | 0.00 | 0.00 | 66 | 1019.1 |
| 20260506133004 | -1 | 266 | 0.0 | 4.8 | 0.00 | 0.00 | 0.00 | 70 | 1018.9 |
| 20260506131511 | -2 | 250 | 0.0 | 4.8 | 0.00 | 0.00 | 0.00 | 75 | 1019.1 |
| 20260506130014 | -3 | 275 | 3.2 | 6.4 | 0.00 | 0.00 | 0.00 | 73 | 1018.9 |
| 20260506124519 | -4 | 237 | 0.0 | 1.6 | 0.00 | 0.00 | 0.00 | 83 | 1018.8 |
| 20260506123004 | -5 | 247 | 0.0 | 3.2 | 0.00 | 0.00 | 0.00 | 82 | 1018.8 |
| 20260506121511 | -6 | 274 | 0.0 | 1.6 | 0.00 | 0.00 | 0.00 | 81 | 1018.6 |
| 20260506120025 | -6 | 269 | 0.0 | 3.2 | 0.00 | 0.00 | 0.00 | 81 | 1018.4 |
| 20260506114519 | -7 | 238 | 0.0 | 3.2 | 0.00 | 0.00 | 0.00 | 84 | 1018.3 |
| 20260506113019 | -7 | 259 | 0.0 | 0.0 | 0.00 | 0.00 | 0.00 | 84 | 1018.3 |
| 20260506111524 | -7 | 259 | 0.0 | 1.6 | 0.00 | 0.00 | 0.00 | 82 | 1018.1 |
| 20260506110008 | -7 | 254 | 0.0 | 1.6 | 0.00 | 0.00 | 0.00 | 82 | 1018.2 |
| 20260506104518 | -6 | 249 | 0.0 | 1.6 | 0.00 | 0.00 | 0.00 | 83 | 1018.3 |
| 20260506103033 | -6 | 250 | 0.0 | 0.0 | 0.00 | 0.00 | 0.00 | 82 | 1018.2 |
| 20260506101516 | -6 | 223 | 0.0 | 1.6 | 0.00 | 0.00 | 0.00 | 82 | 1018.1 |
| 20260506100022 | -6 | 271 | 0.0 | 1.6 | 0.00 | 0.00 | 0.00 | 80 | 1018.1 |
| 20260506094524 | -6 | 252 | 0.0 | 1.6 | 0.00 | 0.00 | 0.00 | 81 | 1018.0 |
| 20260506093018 | -6 | 244 | 0.0 | 1.6 | 0.00 | 0.00 | 0.00 | 83 | 1017.9 |
| 20260506091516 | -5 | 247 | 0.0 | 1.6 | 0.00 | 0.00 | 0.00 | 83 | 1018.0 |
| 20260506090019 | -5 | 240 | 0.0 | 1.6 | 0.00 | 0.00 | 0.00 | 83 | 1018.0 |
| 20260506084554 | -5 | 269 | 0.0 | 1.6 | 0.00 | 0.00 | 0.00 | 81 | 1018.0 |
| 20260506083026 | -5 | 270 | 0.0 | 1.6 | 0.00 | 0.00 | 0.00 | 81 | 1018.0 |
| 20260506081509 | -5 | 286 | 0.0 | 1.6 | 0.00 | 0.00 | 0.00 | 81 | 1018.0 |
| 20260506073023 | -5 | 148 | 0.0 | 0.0 | 0.00 | 0.00 | 0.00 | 76 | 1018.0 |
| 20260506071527 | -4 | 148 | 0.0 | 0.0 | 0.00 | 0.00 | 0.00 | 69 | 1018.1 |
| 20260506061523 | -2 | 351 | 0.0 | 1.6 | 0.00 | 0.00 | 0.00 | 58 | 1017.9 |
| 20260506044535 | -2 | 269 | 0.0 | 0.0 | 0.00 | 0.00 | 0.00 | 51 | 1017.2 |
| 20260506043012 | 0 | 270 | 0.0 | 1.6 | 0.00 | 0.00 | 0.00 | 49 | 1017.0 |
| 20260506041503 | -1 | 276 | 0.0 | 1.6 | 0.00 | 0.00 | 0.00 | 53 | 1017.0 |
| 20260506040004 | -1 | 352 | 0.0 | 1.6 | 0.00 | 0.00 | 0.00 | 49 | 1017.0 |
| 20260506034506 | 0 | 323 | 1.6 | 3.2 | 0.00 | 0.00 | 0.00 | 46 | 1017.0 |
| 20260506033008 | 0 | 333 | 1.6 | 4.8 | 0.00 | 0.00 | 0.00 | 44 | 1016.9 |
| 20260506031513 | 1 | 324 | 1.6 | 3.2 | 0.00 | 0.00 | 0.00 | 40 | 1016.8 |
| 20260506030018 | 2 | 335 | 3.2 | 3.2 | 0.00 | 0.00 | 0.00 | 40 | 1016.7 |
| 20260506024503 | 2 | 338 | 3.2 | 6.4 | 0.00 | 0.00 | 0.00 | 37 | 1016.5 |
| 20260506023006 | 3 | 335 | 4.8 | 8.0 | 0.00 | 0.00 | 0.00 | 36 | 1016.3 |
| 20260506021509 | 5 | 332 | 4.8 | 12.9 | 0.00 | 0.00 | 0.00 | 34 | 1016.1 |
| 20260506020013 | 5 | 337 | 9.7 | 14.5 | 0.00 | 0.00 | 0.00 | 33 | 1016.0 |
| 20260506014520 | 6 | 332 | 9.7 | 14.5 | 0.00 | 0.00 | 0.00 | 33 | 1016.0 |
| 20260506013003 | 6 | 356 | 8.0 | 11.3 | 0.00 | 0.00 | 0.00 | 33 | 1015.9 |
| 20260506011506 | 6 | 328 | 9.7 | 19.3 | 0.00 | 0.00 | 0.00 | 33 | 1015.8 |
| 20260506010013 | 7 | 339 | 11.3 | 25.7 | 0.00 | 0.00 | 0.00 | 31 | 1015.6 |
| 20260506004517 | 7 | 326 | 8.0 | 19.3 | 0.00 | 0.00 | 0.00 | 30 | 1015.6 |
| 20260506003018 | 7 | 347 | 11.3 | 25.7 | 0.00 | 0.00 | 0.00 | 30 | 1015.5 |
| 20260506001524 | 7 | 285 | 8.0 | 22.5 | 0.00 | 0.00 | 0.00 | 30 | 1015.5 |
| 20260506000009 | 8 | 333 | 9.7 | 20.9 | 0.00 | 0.00 | 0.00 | 30 | 1015.4 |
| 20260505234508 | 8 | 294 | 9.7 | 25.7 | 0.00 | 0.00 | 0.00 | 30 | 1015.4 |
| 20260505233018 | 7 | 311 | 8.0 | 22.5 | 0.00 | 0.00 | 0.00 | 30 | 1015.3 |
| 20260505231535 | 8 | 329 | 9.7 | 24.1 | 0.00 | 0.00 | 0.00 | 30 | 1015.3 |
| 20260505230027 | 8 | 349 | 11.3 | 20.9 | 0.00 | 0.00 | 0.00 | 32 | 1015.0 |
| 20260505224510 | 7 | 335 | 9.7 | 24.1 | 0.00 | 0.00 | 0.00 | 32 | 1015.3 |
| 20260505223011 | 8 | 331 | 14.5 | 22.5 | 0.00 | 0.00 | 0.00 | 32 | 1015.1 |
| 20260505221516 | 8 | 336 | 11.3 | 22.5 | 0.00 | 0.00 | 0.00 | 32 | 1015.2 |
| 20260505220024 | 8 | 348 | 14.5 | 24.1 | 0.00 | 0.00 | 0.00 | 33 | 1015.4 |
| 20260505214527 | 8 | 304 | 16.1 | 27.4 | 0.00 | 0.00 | 0.00 | 31 | 1015.4 |
| 20260505213016 | 8 | 319 | 11.3 | 24.1 | 0.00 | 0.00 | 0.00 | 32 | 1015.4 |
| 20260505211513 | 7 | 292 | 16.1 | 25.7 | 0.00 | 0.00 | 0.00 | 31 | 1015.4 |
| 20260505210020 | 8 | 304 | 17.7 | 29.0 | 0.00 | 0.00 | 0.00 | 31 | 1015.6 |
| 20260505204522 | 8 | 293 | 9.7 | 25.7 | 0.00 | 0.00 | 0.00 | 33 | 1015.7 |
| 20260505203004 | 7 | 318 | 14.5 | 32.2 | 0.00 | 0.00 | 0.00 | 32 | 1015.7 |